Satellite-Ground Cal/Val Site Overpasses Predictions

Prediction of Satellite NPP Overpassing Cal/Val Site: Antarctic Dome C

Ground Cal/Val Site Location: Latitude: -75.10, Longitude: 123.35; Satellite-Ground Site NADIR distance within 100 km.

Table of predicted overpasses for the next 14.0 days since TLE Epoch: 8/10/2013
Interval Starting Time Ending Time Minimum Distance Time Minimum Distance (km)
1 08/11/2013 07:31:32 08/11/2013 07:32:01 08/11/2013 07:31:47 3.72
2 08/14/2013 14:55:04 08/14/2013 14:55:33 08/14/2013 14:55:18 24.43
3 08/15/2013 14:36:22 08/15/2013 14:36:38 08/15/2013 14:36:30 82.59
4 08/16/2013 07:37:56 08/16/2013 07:38:24 08/16/2013 07:38:10 33.56
5 08/17/2013 07:19:13 08/17/2013 07:19:31 08/17/2013 07:19:22 76.35
6 08/19/2013 15:01:30 08/19/2013 15:01:53 08/19/2013 15:01:42 61.74
7 08/20/2013 14:42:40 08/20/2013 14:43:06 08/20/2013 14:42:53 47.38
8 08/21/2013 07:44:22 08/21/2013 07:44:43 08/21/2013 07:44:33 69.07
9 08/22/2013 07:25:31 08/22/2013 07:25:58 08/22/2013 07:25:44 38.73
